Check out our new BloomSky Weather System.

Active alerts

Houston, TX
  Details for Houston, TX Special Weather Statement
Fort Bend, TX
  Details for Fort Bend, TX Special Weather Statement


Thunder radar  blitzortung!


Rain radar more information rain snow radar


Visit our other weather sites:

Template documentation
and downloads

And another site



Weather Underground History page Text

Daily Summary for January 10, 2018 Units:  Both    English   Metric
« Previous Day
Next Day »
Daily Weekly Monthly Yearly Custom
  High: Low: Average:
Temperature: TemperatureF °F /  -17.8 °C 52.0 °F /  11.1 °C 56.9 °F /  13.8 °C
Dew Point: DewpointF °F /  -17.8 °C 50.9 °F /  10.5 °C 55.7 °F /  13.2 °C
Humidity: Humidity % 91 % 94 %
Wind Speed: WindSpeedMPH mph /  0 km/h - 1.7 mph /  2.7 km/h
Wind Gust: WindSpeedGustMPH mph /  0 km/h - -
Wind:- - SE
Pressure: PressureIn in /  0 hPa 29.78 in /  1008.4 hPa -
Precipitation: 0.00 in /  0 mm    
Historical Graphs
 
 
Tabular Data for January 10, 2018
Time Temperature Dew Point Pressure Wind Wind Speed Wind Gust Humidity Rainfall Rate (Hourly)
TemperatureF °F /  -17.8 °C DewpointF °F /  -17.8 °C PressureIn in /  0 hPa Calm     Humidity % HourlyPrecipIn in /  0 mm
02:32 52.0 °F /  11.1 °C 50.9 °F /  10.5 °C 30.03 in /  1016.8 hPa SSW 3.0 mph /  4.8 km/h 10.0 mph /  16.1 km/h 96 % 0.00 in /  0 mm
07:00 52.0 °F /  11.1 °C 51.4 °F /  10.8 °C 30.01 in /  1016.1 hPa Calm   1.0 mph /  1.6 km/h 98 % 0.00 in /  0 mm
07:20 52.0 °F /  11.1 °C 51.4 °F /  10.8 °C 30.01 in /  1016.1 hPa Calm   1.0 mph /  1.6 km/h 98 % 0.00 in /  0 mm
07:25 52.0 °F /  11.1 °C 51.4 °F /  10.8 °C 30.01 in /  1016.1 hPa Calm   1.0 mph /  1.6 km/h 98 % 0.00 in /  0 mm
07:32 52.2 °F /  11.2 °C 51.6 °F /  10.9 °C 30.01 in /  1016.1 hPa Calm   1.0 mph /  1.6 km/h 98 % 0.00 in /  0 mm
07:52 52.3 °F /  11.3 °C 51.8 °F /  11 °C 30.01 in /  1016.1 hPa Calm   2.0 mph /  3.2 km/h 98 % 0.00 in /  0 mm
08:01 52.3 °F /  11.3 °C 51.8 °F /  11 °C 30.01 in /  1016.1 hPa Calm   2.0 mph /  3.2 km/h 98 % 0.00 in /  0 mm
08:22 52.7 °F /  11.5 °C 52.2 °F /  11.2 °C 30.01 in /  1016.1 hPa ESE 1.0 mph /  1.6 km/h 3.0 mph /  4.8 km/h 98 % 0.00 in /  0 mm
08:45 52.9 °F /  11.6 °C 52.3 °F /  11.3 °C 30.02 in /  1016.5 hPa NE 1.0 mph /  1.6 km/h 3.0 mph /  4.8 km/h 98 % 0.00 in /  0 mm
08:50 52.9 °F /  11.6 °C 52.3 °F /  11.3 °C 30.02 in /  1016.5 hPa Calm   2.0 mph /  3.2 km/h 98 % 0.00 in /  0 mm
08:58 53.1 °F /  11.7 °C 52.5 °F /  11.4 °C 30.02 in /  1016.5 hPa Calm   2.0 mph /  3.2 km/h 98 % 0.00 in /  0 mm
09:14 53.2 °F /  11.8 °C 52.7 °F /  11.5 °C 30.02 in /  1016.5 hPa Calm   2.0 mph /  3.2 km/h 98 % 0.00 in /  0 mm
09:23 53.4 °F /  11.9 °C 52.9 °F /  11.6 °C 30.02 in /  1016.5 hPa Calm   3.0 mph /  4.8 km/h 98 % 0.00 in /  0 mm
09:30 53.4 °F /  11.9 °C 52.9 °F /  11.6 °C 30.02 in /  1016.5 hPa Calm   3.0 mph /  4.8 km/h 98 % 0.00 in /  0 mm
09:37 53.8 °F /  12.1 °C 53.2 °F /  11.8 °C 30.02 in /  1016.5 hPa ESE 1.0 mph /  1.6 km/h 3.0 mph /  4.8 km/h 98 % 0.00 in /  0 mm
09:50 53.8 °F /  12.1 °C 53.2 °F /  11.8 °C 30.02 in /  1016.5 hPa Calm   5.0 mph /  8 km/h 98 % 0.00 in /  0 mm
09:57 54.1 °F /  12.3 °C 53.6 °F /  12 °C 30.02 in /  1016.5 hPa East 1.0 mph /  1.6 km/h 3.0 mph /  4.8 km/h 98 % 0.00 in /  0 mm
10:21 54.7 °F /  12.6 °C 54.1 °F /  12.3 °C 30.01 in /  1016.1 hPa SE 2.0 mph /  3.2 km/h 4.0 mph /  6.4 km/h 98 % 0.00 in /  0 mm
10:32 54.9 °F /  12.7 °C 54.3 °F /  12.4 °C 30.01 in /  1016.1 hPa Calm   4.0 mph /  6.4 km/h 98 % 0.00 in /  0 mm
10:42 55.2 °F /  12.9 °C 54.7 °F /  12.6 °C 30.01 in /  1016.1 hPa East 2.0 mph /  3.2 km/h 3.0 mph /  4.8 km/h 98 % 0.00 in /  0 mm
10:49 55.8 °F /  13.2 °C 55.2 °F /  12.9 °C 30.00 in /  1015.8 hPa Calm   3.0 mph /  4.8 km/h 98 % 0.00 in /  0 mm
10:57 55.9 °F /  13.3 °C 55.0 °F /  12.8 °C 30.00 in /  1015.8 hPa Calm   3.0 mph /  4.8 km/h 97 % 0.00 in /  0 mm
11:05 56.5 °F /  13.6 °C 55.6 °F /  13.1 °C 30.00 in /  1015.8 hPa South 1.0 mph /  1.6 km/h 3.0 mph /  4.8 km/h 97 % 0.00 in /  0 mm
11:10 57.0 °F /  13.9 °C 56.1 °F /  13.4 °C 30.00 in /  1015.8 hPa ENE 2.0 mph /  3.2 km/h 2.0 mph /  3.2 km/h 97 % 0.00 in /  0 mm
11:17 57.0 °F /  13.9 °C 55.9 °F /  13.3 °C 29.99 in /  1015.5 hPa SE 2.0 mph /  3.2 km/h 2.0 mph /  3.2 km/h 96 % 0.00 in /  0 mm
11:25 57.2 °F /  14 °C 56.1 °F /  13.4 °C 29.99 in /  1015.5 hPa Calm   3.0 mph /  4.8 km/h 96 % 0.00 in /  0 mm
11:33 57.6 °F /  14.2 °C 56.1 °F /  13.4 °C 29.98 in /  1015.1 hPa Calm   3.0 mph /  4.8 km/h 95 % 0.00 in /  0 mm
11:40 58.1 °F /  14.5 °C 56.7 °F /  13.7 °C 29.98 in /  1015.1 hPa Calm   3.0 mph /  4.8 km/h 95 % 0.00 in /  0 mm
11:46 58.5 °F /  14.7 °C 56.7 °F /  13.7 °C 29.98 in /  1015.1 hPa Calm   3.0 mph /  4.8 km/h 94 % 0.00 in /  0 mm
11:54 59.0 °F /  15 °C 57.0 °F /  13.9 °C 29.97 in /  1014.8 hPa SE 2.0 mph /  3.2 km/h 3.0 mph /  4.8 km/h 93 % 0.00 in /  0 mm
11:59 59.0 °F /  15 °C 56.3 °F /  13.5 °C 29.97 in /  1014.8 hPa SE 5.0 mph /  8 km/h 5.0 mph /  8 km/h 91 % 0.00 in /  0 mm
12:04 59.2 °F /  15.1 °C 56.5 °F /  13.6 °C 29.97 in /  1014.8 hPa ESE 2.0 mph /  3.2 km/h 5.0 mph /  8 km/h 91 % 0.00 in /  0 mm
18:00 60.1 °F /  15.6 °C 57.4 °F /  14.1 °C 29.80 in /  1009 hPa SE 6.0 mph /  9.7 km/h 10.0 mph /  16.1 km/h 91 % 0.00 in /  0 mm
18:06 59.9 °F /  15.5 °C 57.6 °F /  14.2 °C 29.79 in /  1008.7 hPa SE 3.0 mph /  4.8 km/h 11.0 mph /  17.7 km/h 92 % 0.00 in /  0 mm
18:15 59.5 °F /  15.3 °C 57.2 °F /  14 °C 29.78 in /  1008.4 hPa SSE 4.0 mph /  6.4 km/h 10.0 mph /  16.1 km/h 92 % 0.00 in /  0 mm
18:21 59.5 °F /  15.3 °C 57.2 °F /  14 °C 29.79 in /  1008.7 hPa SE 4.0 mph /  6.4 km/h 9.0 mph /  14.5 km/h 92 % 0.00 in /  0 mm
18:32 59.5 °F /  15.3 °C 57.6 °F /  14.2 °C 29.79 in /  1008.7 hPa ESE 1.0 mph /  1.6 km/h 10.0 mph /  16.1 km/h 93 % 0.00 in /  0 mm
18:42 59.7 °F /  15.4 °C 57.7 °F /  14.3 °C 29.79 in /  1008.7 hPa SSE 2.0 mph /  3.2 km/h 11.0 mph /  17.7 km/h 93 % 0.00 in /  0 mm
18:49 59.5 °F /  15.3 °C 57.6 °F /  14.2 °C 29.79 in /  1008.7 hPa ESE 8.0 mph /  12.9 km/h 11.0 mph /  17.7 km/h 93 % 0.00 in /  0 mm
18:55 59.5 °F /  15.3 °C 57.7 °F /  14.3 °C 29.79 in /  1008.7 hPa SE 7.0 mph /  11.3 km/h 11.0 mph /  17.7 km/h 94 % 0.00 in /  0 mm
19:02 59.5 °F /  15.3 °C 57.7 °F /  14.3 °C 29.80 in /  1009 hPa SSE 6.0 mph /  9.7 km/h 11.0 mph /  17.7 km/h 94 % 0.00 in /  0 mm
19:32 60.1 °F /  15.6 °C 58.6 °F /  14.8 °C 29.81 in /  1009.4 hPa SE 6.0 mph /  9.7 km/h 11.0 mph /  17.7 km/h 95 % 0.00 in /  0 mm
19:37 60.1 °F /  15.6 °C 58.6 °F /  14.8 °C 29.81 in /  1009.4 hPa ESE 5.0 mph /  8 km/h 11.0 mph /  17.7 km/h 95 % 0.00 in /  0 mm
19:49 60.3 °F /  15.7 °C 58.8 °F /  14.9 °C 29.80 in /  1009 hPa East 7.0 mph /  11.3 km/h 8.0 mph /  12.9 km/h 95 % 0.00 in /  0 mm
19:54 60.3 °F /  15.7 °C 58.8 °F /  14.9 °C 29.81 in /  1009.4 hPa ESE 3.0 mph /  4.8 km/h 8.0 mph /  12.9 km/h 95 % 0.00 in /  0 mm
19:59 60.3 °F /  15.7 °C 58.8 °F /  14.9 °C 29.81 in /  1009.4 hPa SE 1.0 mph /  1.6 km/h 11.0 mph /  17.7 km/h 95 % 0.00 in /  0 mm
20:07 60.4 °F /  15.8 °C 59.0 °F /  15 °C 29.82 in /  1009.7 hPa SSE 3.0 mph /  4.8 km/h 11.0 mph /  17.7 km/h 95 % 0.00 in /  0 mm
20:21 60.4 °F /  15.8 °C 59.0 °F /  15 °C 29.81 in /  1009.4 hPa SSW 4.0 mph /  6.4 km/h 5.0 mph /  8 km/h 95 % 0.00 in /  0 mm
20:36 60.4 °F /  15.8 °C 59.0 °F /  15 °C 29.81 in /  1009.4 hPa SE 1.0 mph /  1.6 km/h 7.0 mph /  11.3 km/h 95 % 0.00 in /  0 mm
20:42 60.4 °F /  15.8 °C 59.0 °F /  15 °C 29.81 in /  1009.4 hPa SE 3.0 mph /  4.8 km/h 5.0 mph /  8 km/h 95 % 0.00 in /  0 mm
20:47 60.4 °F /  15.8 °C 59.0 °F /  15 °C 29.80 in /  1009 hPa South 1.0 mph /  1.6 km/h 6.0 mph /  9.7 km/h 95 % 0.00 in /  0 mm
20:56 60.4 °F /  15.8 °C 59.0 °F /  15 °C 29.80 in /  1009 hPa ESE 2.0 mph /  3.2 km/h 7.0 mph /  11.3 km/h 95 % 0.00 in /  0 mm
21:13 60.4 °F /  15.8 °C 59.0 °F /  15 °C 29.80 in /  1009 hPa SE 2.0 mph /  3.2 km/h 7.0 mph /  11.3 km/h 95 % 0.00 in /  0 mm
21:28 60.6 °F /  15.9 °C 59.5 °F /  15.3 °C 29.79 in /  1008.7 hPa SE 3.0 mph /  4.8 km/h 8.0 mph /  12.9 km/h 96 % 0.00 in /  0 mm
21:41 60.6 °F /  15.9 °C 59.5 °F /  15.3 °C 29.80 in /  1009 hPa South 2.0 mph /  3.2 km/h 10.0 mph /  16.1 km/h 96 % 0.00 in /  0 mm
21:46 60.6 °F /  15.9 °C 59.5 °F /  15.3 °C 29.80 in /  1009 hPa ESE 3.0 mph /  4.8 km/h 10.0 mph /  16.1 km/h 96 % 0.00 in /  0 mm
22:02 60.6 °F /  15.9 °C 59.2 °F /  15.1 °C 29.81 in /  1009.4 hPa South 2.0 mph /  3.2 km/h 6.0 mph /  9.7 km/h 95 % 0.00 in /  0 mm
22:11 60.6 °F /  15.9 °C 59.2 °F /  15.1 °C 29.81 in /  1009.4 hPa SSE 1.0 mph /  1.6 km/h 6.0 mph /  9.7 km/h 95 % 0.00 in /  0 mm
22:17 60.6 °F /  15.9 °C 59.2 °F /  15.1 °C 29.81 in /  1009.4 hPa Calm   4.0 mph /  6.4 km/h 95 % 0.00 in /  0 mm
22:23 60.6 °F /  15.9 °C 59.2 °F /  15.1 °C 29.82 in /  1009.7 hPa Calm   3.0 mph /  4.8 km/h 95 % 0.00 in /  0 mm
22:51 60.4 °F /  15.8 °C 59.0 °F /  15 °C 29.82 in /  1009.7 hPa Calm   2.0 mph /  3.2 km/h 95 % 0.00 in /  0 mm
23:08 60.4 °F /  15.8 °C 59.0 °F /  15 °C 29.82 in /  1009.7 hPa ESE 1.0 mph /  1.6 km/h 2.0 mph /  3.2 km/h 95 % 0.00 in /  0 mm
23:13 60.6 °F /  15.9 °C 59.2 °F /  15.1 °C 29.81 in /  1009.4 hPa ESE 1.0 mph /  1.6 km/h 2.0 mph /  3.2 km/h 95 % 0.00 in /  0 mm
23:21 60.4 °F /  15.8 °C 59.0 °F /  15 °C 29.80 in /  1009 hPa SE 1.0 mph /  1.6 km/h 3.0 mph /  4.8 km/h 95 % 0.00 in /  0 mm
23:28 60.4 °F /  15.8 °C 59.0 °F /  15 °C 29.81 in /  1009.4 hPa Calm   3.0 mph /  4.8 km/h 95 % 0.00 in /  0 mm
23:33 60.4 °F /  15.8 °C 59.0 °F /  15 °C 29.80 in /  1009 hPa Calm   3.0 mph /  4.8 km/h 95 % 0.00 in /  0 mm
23:38 60.4 °F /  15.8 °C 59.0 °F /  15 °C 29.80 in /  1009 hPa ESE 1.0 mph /  1.6 km/h 2.0 mph /  3.2 km/h 95 % 0.00 in /  0 mm
23:43 60.4 °F /  15.8 °C 59.0 °F /  15 °C 29.79 in /  1008.7 hPa Calm   2.0 mph /  3.2 km/h 95 % 0.00 in /  0 mm
23:51 60.4 °F /  15.8 °C 59.0 °F /  15 °C 29.79 in /  1008.7 hPa SE 1.0 mph /  1.6 km/h 2.0 mph /  3.2 km/h 95 % 0.00 in /  0 mm
23:57 60.4 °F /  15.8 °C 59.0 °F /  15 °C 29.79 in /  1008.7 hPa Calm   3.0 mph /  4.8 km/h 95 % 0.00 in /  0 mm
Spring, Texas: Villages of Bridgestone
Compliments of Weather Underground - 1.75 mb

Script developed by  Jim McMurry - jmcmurry@mwt.net Adapted for the template by  Wim van der Kuil - Leuven-Template.eu

You find our weather info also at:

UK Metoffice

WeatherCloud

Weather Underground

Mid-South Weather Network

AWEKAS

Citizen Weather Observer Program (CWOP)

HAMweather, WeatherForYou, PWS Weather

Equipment we use:

Weather-station
Davis Vantage Vue

Weather-program
Meteohub

Weather-server
Debian 7.9 x86 (Guest)

Provider
DreamHost

Davis Vantage Vue

Meteohub

Debian 7.9 x86 (Guest)

DreamHost